When you browse on this site, cookies collect data to enhance your experience and personalize the content and advertising you see.
Visit our Privacy Policy to learn more. By continuing to use the site, you agree to this use of cookies and data.
  • In Austria
  • List of Countries
  • For 7 days
  • Water Temperature
  • Weather Map
  • News
  • Weather Widgets
  • user-avatar
    Login

    Hourly Weather Kumak

    Today, 1 June, Monday

    Time Temperature Precipitation Wind Pressure Humidity
    00:00 +21°C° 0 mm 5 mps 739 mmHg 61%
    01:00 +20°C° 0 mm 6 mps 739 mmHg 63%
    02:00 +19°C° 0 mm 5 mps 739 mmHg 65%
    03:00 +17°C° 0 mm 5 mps 740 mmHg 67%
    04:00 +18°C° 0 mm 4 mps 739 mmHg 67%
    05:00 +19°C° 0 mm 4 mps 740 mmHg 64%
    06:00 +20°C° 0 mm 4 mps 740 mmHg 61%
    07:00 +21°C° 0 mm 4 mps 740 mmHg 58%
    08:00 +22°C° 0 mm 4 mps 740 mmHg 53%
    09:00 +23°C° 0 mm 5 mps 741 mmHg 49%
    10:00 +26°C° 0 mm 6 mps 741 mmHg 44%
    11:00 +26°C° 0 mm 6 mps 741 mmHg 42%
    12:00 +27°C° 0 mm 6 mps 741 mmHg 40%
    13:00 +27°C° 0 mm 7 mps 741 mmHg 38%
    14:00 +27°C° 0 mm 6 mps 741 mmHg 38%
    15:00 +27°C° 0 mm 6 mps 741 mmHg 38%
    16:00 +27°C° 0 mm 5 mps 741 mmHg 38%
    17:00 +26°C° 0 mm 5 mps 741 mmHg 42%
    18:00 +25°C° 0 mm 4 mps 741 mmHg 46%
    19:00 +23°C° 0 mm 4 mps 741 mmHg 51%
    20:00 +22°C° 0 mm 4 mps 741 mmHg 54%
    21:00 +20°C° 0 mm 3 mps 742 mmHg 57%
    22:00 +19°C° 0 mm 3 mps 742 mmHg 60%
    23:00 +18°C° 0 mm 3 mps 742 mmHg 63%

    Tomorrow, 2 June, Tuesday

    Time Temperature Precipitation Wind Pressure Humidity
    00:00 +17°C° 0 mm 2 mps 742 mmHg 67%
    01:00 +17°C° 0 mm 2 mps 742 mmHg 70%
    02:00 +16°C° 0 mm 2 mps 742 mmHg 72%
    03:00 +16°C° 0 mm 1 mps 742 mmHg 74%
    04:00 +15°C° 0 mm 1 mps 742 mmHg 76%
    05:00 +18°C° 0 mm 1 mps 742 mmHg 71%
    06:00 +19°C° 0 mm 1 mps 742 mmHg 65%
    07:00 +21°C° 0 mm 1 mps 742 mmHg 59%
    08:00 +22°C° 0 mm 1 mps 743 mmHg 53%
    09:00 +23°C° 0 mm 1 mps 743 mmHg 47%
    10:00 +25°C° 0 mm 1 mps 743 mmHg 41%
    11:00 +26°C° 0 mm 1 mps 743 mmHg 38%
    12:00 +27°C° 0 mm 1 mps 742 mmHg 34%
    13:00 +28°C° 0 mm 1 mps 742 mmHg 31%
    14:00 +28°C° 0 mm 1 mps 742 mmHg 29%
    15:00 +28°C° 0 mm 1 mps 742 mmHg 28%
    16:00 +29°C° 0 mm 1 mps 742 mmHg 27%
    17:00 +28°C° 0 mm 1 mps 741 mmHg 30%
    18:00 +27°C° 0 mm 1 mps 741 mmHg 34%
    19:00 +26°C° 0 mm 1 mps 741 mmHg 38%
    20:00 +25°C° 0 mm 1 mps 741 mmHg 38%
    21:00 +24°C° 0 mm 2 mps 741 mmHg 38%
    22:00 +23°C° 0 mm 2 mps 741 mmHg 39%
    23:00 +21°C° 0 mm 2 mps 741 mmHg 41%

    Day after tomorrow, 3 June, Wednesday

    Time Temperature Precipitation Wind Pressure Humidity
    00:00 +20°C° 0 mm 2 mps 741 mmHg 44%
    01:00 +19°C° 0 mm 2 mps 740 mmHg 46%
    02:00 +19°C° 0 mm 3 mps 740 mmHg 48%
    03:00 +18°C° 0 mm 3 mps 740 mmHg 50%
    04:00 +18°C° 0 mm 3 mps 740 mmHg 53%
    05:00 +19°C° 0 mm 4 mps 740 mmHg 53%
    06:00 +20°C° 0 mm 4 mps 740 mmHg 52%
    07:00 +22°C° 0 mm 5 mps 740 mmHg 52%
    08:00 +23°C° 0 mm 5 mps 740 mmHg 48%
    09:00 +26°C° 0 mm 5 mps 740 mmHg 44%
    10:00 +27°C° 0 mm 6 mps 740 mmHg 40%
    11:00 +28°C° 0 mm 6 mps 740 mmHg 38%
    12:00 +28°C° 0 mm 6 mps 739 mmHg 37%
    13:00 +29°C° 0 mm 6 mps 739 mmHg 36%
    14:00 +29°C° 0 mm 6 mps 739 mmHg 37%
    15:00 +29°C° 0 mm 6 mps 739 mmHg 38%
    16:00 +29°C° 0 mm 6 mps 739 mmHg 38%
    17:00 +28°C° 0 mm 5 mps 739 mmHg 42%
    18:00 +27°C° 0 mm 5 mps 739 mmHg 45%
    19:00 +26°C° 0 mm 5 mps 739 mmHg 48%
    20:00 +25°C° 0 mm 5 mps 739 mmHg 50%
    21:00 +22°C° 0 mm 6 mps 739 mmHg 52%
    22:00 +21°C° 0 mm 6 mps 739 mmHg 54%
    23:00 +20°C° 0 mm 6 mps 739 mmHg 56%

    4 June, Thursday

    Time Temperature Precipitation Wind Pressure Humidity
    00:00 +19°C° 0 mm 5 mps 739 mmHg 58%
    01:00 +19°C° 0 mm 5 mps 739 mmHg 60%
    02:00 +17°C° 0 mm 5 mps 739 mmHg 62%
    03:00 +16°C° 0 mm 5 mps 739 mmHg 64%
    04:00 +16°C° 0 mm 5 mps 739 mmHg 65%
    05:00 +17°C° 0 mm 6 mps 739 mmHg 63%
    06:00 +18°C° 0 mm 7 mps 739 mmHg 60%
    07:00 +20°C° 0 mm 7 mps 739 mmHg 57%
    08:00 +21°C° 0 mm 8 mps 739 mmHg 53%
    09:00 +23°C° 0 mm 8 mps 739 mmHg 48%
    10:00 +24°C° 0 mm 8 mps 739 mmHg 43%
    11:00 +26°C° 0 mm 8 mps 739 mmHg 41%
    12:00 +26°C° 0 mm 8 mps 739 mmHg 40%
    13:00 +27°C° 0 mm 9 mps 739 mmHg 38%
    14:00 +26°C° 0.1 mm 8 mps 739 mmHg 40%
    15:00 +26°C° 0.1 mm 8 mps 739 mmHg 42%
    16:00 +24°C° 0.1 mm 8 mps 739 mmHg 44%
    17:00 +23°C° 0 mm 7 mps 740 mmHg 47%
    18:00 +22°C° 0 mm 7 mps 740 mmHg 49%
    19:00 +21°C° 0 mm 7 mps 740 mmHg 52%
    20:00 +21°C° 0 mm 6 mps 740 mmHg 51%
    21:00 +20°C° 0 mm 6 mps 740 mmHg 51%
    22:00 +19°C° 0 mm 6 mps 740 mmHg 50%
    23:00 +17°C° 0 mm 6 mps 740 mmHg 50%

    5 June, Friday

    Time Temperature Precipitation Wind Pressure Humidity
    00:00 +17°C° 0 mm 7 mps 741 mmHg 51%
    01:00 +16°C° 0 mm 7 mps 741 mmHg 51%
    02:00 +16°C° 0 mm 7 mps 741 mmHg 53%
    03:00 +15°C° 0 mm 7 mps 741 mmHg 55%
    04:00 +15°C° 0 mm 7 mps 742 mmHg 56%
    05:00 +15°C° 0 mm 8 mps 742 mmHg 55%
    06:00 +15°C° 0 mm 8 mps 742 mmHg 54%
    07:00 +16°C° 0 mm 8 mps 743 mmHg 54%
    08:00 +16°C° 0 mm 8 mps 743 mmHg 52%
    09:00 +17°C° 0 mm 8 mps 743 mmHg 51%
    10:00 +18°C° 0 mm 7 mps 743 mmHg 50%
    11:00 +18°C° 0 mm 7 mps 743 mmHg 48%
    12:00 +18°C° 0 mm 7 mps 743 mmHg 47%
    13:00 +20°C° 0 mm 7 mps 743 mmHg 45%
    14:00 +20°C° 0 mm 6 mps 744 mmHg 45%
    15:00 +20°C° 0 mm 6 mps 744 mmHg 45%
    16:00 +19°C° 0 mm 6 mps 744 mmHg 44%
    17:00 +19°C° 0 mm 5 mps 744 mmHg 47%
    18:00 +18°C° 0 mm 4 mps 744 mmHg 50%
    19:00 +18°C° 0 mm 3 mps 744 mmHg 54%
    20:00 +17°C° 0 mm 3 mps 744 mmHg 54%
    21:00 +17°C° 0 mm 3 mps 744 mmHg 54%
    22:00 +17°C° 0 mm 3 mps 744 mmHg 55%
    23:00 +17°C° 0 mm 4 mps 744 mmHg 53%

    6 June, Saturday

    Time Temperature Precipitation Wind Pressure Humidity
    00:00 +17°C° 0 mm 4 mps 744 mmHg 51%
    01:00 +16°C° 0 mm 5 mps 744 mmHg 49%
    02:00 +15°C° 0 mm 4 mps 744 mmHg 49%
    03:00 +15°C° 0 mm 4 mps 745 mmHg 49%
    04:00 +15°C° 0 mm 4 mps 745 mmHg 49%
    05:00 +15°C° 0 mm 4 mps 745 mmHg 50%
    06:00 +15°C° 0 mm 4 mps 745 mmHg 51%
    07:00 +15°C° 0 mm 4 mps 745 mmHg 52%
    08:00 +15°C° 0.1 mm 5 mps 745 mmHg 53%
    09:00 +15°C° 0.1 mm 6 mps 744 mmHg 54%
    10:00 +15°C° 0.1 mm 6 mps 744 mmHg 55%
    11:00 +15°C° 0 mm 6 mps 744 mmHg 56%
    12:00 +15°C° 0 mm 6 mps 744 mmHg 58%
    13:00 +15°C° 0 mm 5 mps 744 mmHg 59%
    14:00 +14°C° 0.4 mm 6 mps 744 mmHg 62%
    15:00 +14°C° 0.4 mm 6 mps 744 mmHg 66%
    16:00 +14°C° 0.4 mm 7 mps 744 mmHg 69%
    17:00 +14°C° 0 mm 6 mps 744 mmHg 65%
    18:00 +15°C° 0 mm 5 mps 744 mmHg 61%
    19:00 +15°C° 0 mm 4 mps 744 mmHg 57%
    20:00 +14°C° 0 mm 4 mps 744 mmHg 57%
    21:00 +14°C° 0 mm 3 mps 744 mmHg 58%
    22:00 +14°C° 0 mm 3 mps 744 mmHg 58%
    23:00 +14°C° 0 mm 3 mps 744 mmHg 59%
    Show more